[[{"header":{"parameterUnit":"m.s-1","parameterCategory":1,"la1":30.2991,"la2":30.254,"lo1":-89.0895,"lo2":-89.0444,"dx":0.0017,"dy":0.0017,"nx":28,"ny":28,"refTime":"2022-11-16T03:00:00:Z","depth":0,"parameterNumber":2,"parameterNumberName":"U-component_of_WINDS"},"data":[0,0,0,0,0,0,0,0,0,0,0,0,0,0,0,0,0,0,0,0,0,0,0,0,0,0,0,0,0,0,0,0,0,0,0,0,0,0,0,0,0,0,0,0,0,0,0,0,0,0,0,0,0,0,0,0,0,0,2.7646,2.7646,0,2.7647,2.7647,2.7647,2.7607,2.7606,2.7605,2.7604,2.7604,2.7605,2.7606,0,0,0,0,0,0,0,0,0,0,0,0,0,2.761,2.7611,2.7646,2.7646,2.7646,2.7647,2.7647,2.7647,2.7607,2.7606,2.7604,2.7603,2.7604,2.7605,2.7607,0,0,0,0,0,0,0,0,0,0,0,0,0,2.762,2.7611,2.7646,2.7626,2.7624,2.7647,2.7647,2.7647,2.7607,2.7606,2.7604,2.7602,2.7604,2.7605,2.7607,2.7649,0,0,2.7611,2.7612,0,0,0,0,0,0,0,0,2.7619,2.7621,2.7629,2.7627,2.7625,2.7625,2.7635,2.7648,2.7608,2.7614,2.7604,2.7602,2.7613,2.7613,2.7617,2.7649,2.7649,2.7612,2.7613,2.7613,2.7614,0,0,0,0,0,0,0,2.7619,2.7621,2.7646,2.7629,2.7627,2.7617,2.7617,2.7637,2.7622,2.7613,2.761,2.7611,2.7611,2.7616,2.7617,2.7649,2.7612,2.7613,2.7614,2.7614,2.7716,2.7718,0,0,0,0,0,0,2.7621,2.7621,2.7646,2.7646,2.7618,2.7619,2.7619,2.7627,2.7622,2.762,2.7612,2.7609,2.7614,2.7615,2.7617,2.7666,2.7613,2.7615,2.7615,2.7715,2.7717,2.7719,0,0,0,0,0,0,2.762,2.7623,2.7646,2.7633,2.7635,2.7622,2.7631,2.7628,2.7632,2.7621,2.7618,2.7619,2.7613,2.7614,2.7641,2.7666,2.7615,2.7617,2.7713,2.7715,2.7718,2.7765,0,0,0,0,0,0,2.7619,2.7623,2.7639,2.7633,2.7636,2.7671,2.7632,2.7629,2.7635,2.763,2.7627,2.7625,2.7611,2.7639,2.7643,2.7667,2.7618,2.771,2.7714,2.7717,2.7761,2.7769,2.7776,0,0,0,0,0,2.7618,2.7651,2.764,2.7643,2.7655,2.7672,2.7673,2.7657,2.7637,2.7652,2.7646,2.7625,2.7663,2.7642,2.7646,2.7671,2.7709,2.7713,2.7717,2.7758,2.7768,2.7776,0,0,0,0,0,0,2.7659,2.765,2.7637,2.767,2.7672,2.7665,2.7684,2.7668,2.7676,2.7671,2.7651,2.7651,2.7681,2.7679,2.7656,2.7712,2.7682,2.7687,2.7712,2.7721,2.7728,2.7728,2.7619,0,0,0,0,0,2.7672,2.7687,2.7678,2.7708,2.771,2.7697,2.7704,2.7692,2.7693,2.7694,2.7689,2.7692,2.7704,2.7713,2.7723,2.7761,2.776,2.778,2.7788,2.7794,2.7798,2.7819,2.7828,2.7732,2.7732,2.7732,0,0,2.7699,2.7696,2.7706,2.7716,2.7717,2.7733,2.7698,2.7716,2.7728,2.7697,2.7722,2.7719,2.772,2.7753,2.7768,2.7752,2.7825,2.7799,2.7804,2.7805,2.7824,2.7833,2.7842,2.7735,2.7734,2.7734,0,0,2.7755,2.7755,2.778,2.7781,2.7783,2.7774,2.7781,2.7777,2.7774,2.7799,2.7776,2.7791,2.7812,2.7815,2.7819,2.7879,2.7861,2.7884,2.7921,2.7942,2.795,2.7956,2.7979,2.7987,2.7888,2.7888,2.7888,0,2.7788,2.7812,2.7795,2.7815,2.7821,2.7794,2.782,2.7822,2.7827,2.7832,2.7815,2.7843,2.7842,2.7876,2.7891,2.7895,2.7902,2.7883,2.795,2.7956,2.7962,2.7983,2.7992,2.7891,2.7891,2.789,2.789,0,2.7852,2.7869,2.789,2.7896,2.7904,2.7927,2.7914,2.7925,2.7913,2.7906,2.7933,2.7932,2.7942,2.7949,2.7937,2.7982,2.7973,2.7953,2.7923,2.7975,2.7994,2.8002,2.7895,2.7894,2.7893,2.7892,0,0,2.7933,2.7932,2.7939,2.7943,2.7943,2.7956,2.7979,2.799,2.8,2.8005,2.8024,2.8044,2.8026,2.8031,2.8019,2.8038,2.8087,2.8016,2.8016,2.803,2.8138,2.8153,2.8162,2.8075,2.8077,2.8078,2.8138,0,2.7989,2.8027,2.8014,2.8053,2.8069,2.8045,2.8065,2.8068,2.8064,2.8077,2.8072,2.8087,2.8062,2.8065,2.8082,2.8077,2.8109,2.8073,2.8093,2.8094,2.8093,2.8172,2.8187,2.8244,2.8145,2.8147,2.8148,0,2.8058,2.8067,2.8108,2.8108,2.8114,2.8132,2.8142,2.8155,2.8159,2.8155,2.8161,2.8146,2.8169,2.8139,2.8171,2.8147,2.8155,2.8154,2.8156,2.8157,2.8124,2.8176,2.8262,2.827,2.8159,2.8158,2.8158,0,2.8113,2.8136,2.8164,2.8167,2.8168,2.8181,2.8182,2.8184,2.8192,2.8201,2.8207,2.8218,2.8225,2.8234,2.8223,2.8202,2.8257,2.8226,2.8254,2.8255,2.8266,2.8266,2.8355,2.8272,2.8272,2.8271,2.8271,0,2.8177,2.8203,2.8189,2.8206,2.8235,2.8221,2.825,2.8248,2.8251,2.8268,2.8248,2.8264,2.8248,2.8264,2.8255,2.8284,2.8286,2.8284,2.8281,2.8286,2.8286,2.829,2.8286,2.8274,2.8273,2.8273,2.8272,0,2.8243,2.8235,2.8264,2.8263,2.8263,2.8285,2.8284,2.83,2.8295,2.8317,2.8321,2.8313,2.833,2.832,2.8337,2.8332,2.8369,2.8361,2.8368,2.8366,2.8395,2.8393,2.849,2.8502,2.8411,2.8412,2.8412,0,2.8284,2.8304,2.8305,2.8316,2.8318,2.8335,2.8343,2.833,2.834,2.8347,2.8363,2.8379,2.839,2.8419,2.8415,2.8428,2.8421,2.8454,2.8422,2.8427,2.8422,2.8421,2.8423,2.846,2.8461,2.8462,2.8463,0,2.8357,2.8353,2.8366,2.8379,2.8391,2.84,2.8407,2.8417,2.8404,2.8417,2.8434,2.8444,2.8462,2.8478,2.849,2.8491,2.8475,2.8473,2.848,2.8485,2.8488,2.8487,2.8385,2.847,2.847,2.8469,2.8469,2.8468,2.8412,2.843,2.8434,2.845,2.8455,2.8463,2.8479,2.8477,2.8491,2.8506,2.8497,2.8519,2.8523,2.8538,2.8542,2.8558,2.8545,2.8555,2.8558,2.8561,2.8565,2.8486,2.856,2.856,2.856,2.856,2.856,0,2.8485,2.8488,2.8503,2.8515,2.8528,2.8513,2.8521,2.8533,2.8552,2.8559,2.8571,2.8592,2.8608,2.8606,2.8621,2.8635,2.8628,2.8639,2.8638,2.8639,2.8576,2.8568,2.8645,2.8645,2.8645,2.8645,2.8645,2.8645,2.8525,2.8554,2.855,2.8582,2.8584,2.8605,2.8611,2.8619,2.8624,2.8649,2.8663,2.8661,2.8665,2.868,2.8694,2.8694,2.87,2.8714,2.8711,2.8652,2.8643,2.8635,2.8628,2.8716,2.8716,2.8772,2.8773,2.8773]},{"header":{"parameterUnit":"m.s-1","parameterCategory":1,"la1":30.2991,"la2":30.254,"lo1":-89.0895,"lo2":-89.0444,"dx":0.0017,"dy":0.0017,"nx":28,"ny":28,"refTime":"2022-11-16T03:00:00:Z","depth":0,"parameterNumber":3,"parameterNumberName":"V-component_of_WINDS"},"data":[0,0,0,0,0,0,0,0,0,0,0,0,0,0,0,0,0,0,0,0,0,0,0,0,0,0,0,0,0,0,0,0,0,0,0,0,0,0,0,0,0,0,0,0,0,0,0,0,0,0,0,0,0,0,0,0,0,0,-6.8237,-6.8238,0,-6.8367,-6.8369,-6.837,-6.8341,-6.8338,-6.8336,-6.8334,-6.8461,-6.8466,-6.8472,0,0,0,0,0,0,0,0,0,0,0,0,0,-6.7957,-6.7962,-6.8236,-6.8238,-6.824,-6.8367,-6.8369,-6.837,-6.8341,-6.8338,-6.8335,-6.8333,-6.8459,-6.8466,-6.8473,0,0,0,0,0,0,0,0,0,0,0,0,0,-6.8082,-6.7964,-6.8236,-6.8241,-6.8242,-6.8367,-6.8369,-6.8371,-6.8342,-6.8338,-6.8335,-6.8331,-6.8457,-6.8465,-6.8474,-6.8599,0,0,-6.85,-6.8503,0,0,0,0,0,0,0,0,-6.8075,-6.8092,-6.8238,-6.8241,-6.8243,-6.8334,-6.8317,-6.8447,-6.8343,-6.8304,-6.8334,-6.8329,-6.8421,-6.8432,-6.8465,-6.8605,-6.8611,-6.85,-6.8505,-6.8509,-6.8511,0,0,0,0,0,0,0,-6.8066,-6.8086,-6.8288,-6.8241,-6.8243,-6.8235,-6.8248,-6.8341,-6.8381,-6.8307,-6.8305,-6.8321,-6.8422,-6.8457,-6.8468,-6.8613,-6.85,-6.8508,-6.8513,-6.8516,-6.8864,-6.8868,0,0,0,0,0,0,-6.8057,-6.8079,-6.8284,-6.8292,-6.8148,-6.8243,-6.8258,-6.8308,-6.838,-6.8388,-6.8324,-6.832,-6.8444,-6.8458,-6.8472,-6.8625,-6.8509,-6.8517,-6.8522,-6.886,-6.8865,-6.887,0,0,0,0,0,0,-6.8051,-6.8075,-6.8279,-6.8185,-6.8211,-6.8251,-6.8308,-6.8313,-6.8348,-6.8394,-6.84,-6.8353,-6.8442,-6.846,-6.8569,-6.8629,-6.8521,-6.8529,-6.8855,-6.8862,-6.8867,-6.8931,0,0,0,0,0,0,-6.8043,-6.8073,-6.8122,-6.8187,-6.8216,-6.8375,-6.8312,-6.8318,-6.8363,-6.8358,-6.8422,-6.8429,-6.844,-6.8556,-6.8577,-6.8639,-6.8535,-6.885,-6.8858,-6.8865,-6.8924,-6.8939,-6.8952,0,0,0,0,0,-6.8033,-6.8133,-6.8125,-6.815,-6.8279,-6.8378,-6.8395,-6.8407,-6.8368,-6.8418,-6.8447,-6.8427,-6.8619,-6.8568,-6.8591,-6.8656,-6.8846,-6.8856,-6.8865,-6.8918,-6.8936,-6.8951,0,0,0,0,0,0,-6.8072,-6.8142,-6.8133,-6.8258,-6.8313,-6.8373,-6.8436,-6.8426,-6.8491,-6.8483,-6.8494,-6.8508,-6.862,-6.8648,-6.859,-6.8782,-6.8727,-6.8741,-6.8759,-6.8777,-6.879,-6.8781,-6.8542,0,0,0,0,0,-6.8096,-6.8173,-6.8229,-6.8333,-6.8362,-6.8394,-6.8438,-6.8443,-6.8499,-6.8522,-6.8559,-6.8613,-6.8685,-6.8733,-6.8802,-6.8928,-6.8942,-6.8984,-6.8998,-6.901,-6.9022,-6.9091,-6.9111,-6.89,-6.89,-6.89,0,0,-6.8145,-6.8192,-6.824,-6.8343,-6.8386,-6.8464,-6.8414,-6.8498,-6.8556,-6.8534,-6.864,-6.8669,-6.873,-6.8848,-6.8902,-6.8876,-6.9083,-6.9021,-6.903,-6.9036,-6.9103,-6.9123,-6.9141,-6.8907,-6.8905,-6.8904,0,0,-6.8274,-6.8318,-6.841,-6.8455,-6.8522,-6.8544,-6.8566,-6.8629,-6.8648,-6.8755,-6.8741,-6.8809,-6.8933,-6.8978,-6.9016,-6.9165,-6.9149,-6.9187,-6.9259,-6.9327,-6.9344,-6.9358,-6.9412,-6.9431,-6.9199,-6.9199,-6.9199,0,-6.8325,-6.8444,-6.8458,-6.8546,-6.8591,-6.8578,-6.8671,-6.8714,-6.8799,-6.883,-6.88,-6.8957,-6.8997,-6.9126,-6.9163,-6.9194,-6.922,-6.9179,-6.934,-6.9355,-6.9369,-6.942,-6.944,-6.9203,-6.9203,-6.9202,-6.9202,0,-6.8505,-6.8588,-6.8654,-6.874,-6.8793,-6.8883,-6.8909,-6.8961,-6.8962,-6.8987,-6.9096,-6.9143,-6.9223,-6.9254,-6.9254,-6.9384,-6.9365,-6.9338,-6.9282,-6.9394,-6.9441,-6.9461,-6.9209,-6.9208,-6.9206,-6.9205,0,0,-6.866,-6.8755,-6.8779,-6.8819,-6.8893,-6.8956,-6.9045,-6.9125,-6.917,-6.9229,-6.9304,-6.9411,-6.9386,-6.9431,-6.9436,-6.9496,-6.9611,-6.9461,-6.9463,-6.9487,-6.9757,-6.9777,-6.98,-6.9602,-6.9605,-6.9608,-6.9752,0,-6.8796,-6.8956,-6.8972,-6.9114,-6.9191,-6.918,-6.9258,-6.9311,-6.9336,-6.9404,-6.9431,-6.9507,-6.9469,-6.9496,-6.9555,-6.9585,-6.9665,-6.9575,-6.967,-6.9673,-6.9655,-6.9825,-6.9846,-6.9979,-6.9771,-6.9774,-6.9776,0,-6.8976,-6.9044,-6.9194,-6.926,-6.9292,-6.9362,-6.9437,-6.9503,-6.9563,-6.9577,-6.9628,-6.9626,-6.9717,-6.9659,-6.9783,-6.9722,-6.9761,-6.9782,-6.9788,-6.9796,-6.9731,-6.9838,-7.0022,-7.0042,-6.9806,-6.9803,-6.9801,0,-6.9075,-6.9204,-6.9311,-6.9345,-6.9423,-6.9473,-6.9507,-6.9564,-6.9611,-6.9677,-6.9708,-6.9782,-6.9822,-6.9879,-6.9897,-6.9853,-7.0021,-6.9965,-7.0035,-7.0035,-7.007,-7.0067,-7.0263,-7.0096,-7.0096,-7.0096,-7.0095,0,-6.9225,-6.9317,-6.9357,-6.9423,-6.9526,-6.9544,-6.9645,-6.9676,-6.9727,-6.9798,-6.9793,-6.9859,-6.9879,-6.9948,-6.9963,-7.0064,-7.0082,-7.0095,-7.0098,-7.0096,-7.0095,-7.0122,-7.0113,-7.0101,-7.01,-7.0099,-7.0098,0,-6.9352,-6.9383,-6.9499,-6.9565,-6.9584,-6.9657,-6.9712,-6.9775,-6.9801,-6.989,-6.9912,-6.9951,-7.0033,-7.0057,-7.0154,-7.0164,-7.0283,-7.0277,-7.0264,-7.0264,-7.0333,-7.0326,-7.0552,-7.0583,-7.0396,-7.0398,-7.04,0,-6.9446,-6.9517,-6.9592,-6.9641,-6.9678,-6.9755,-6.9805,-6.9825,-6.9877,-6.9952,-7.0005,-7.0087,-7.0153,-7.0284,-7.032,-7.0394,-7.039,-7.0465,-7.0401,-7.0397,-7.0392,-7.0387,-7.0394,-7.0476,-7.0478,-7.048,-7.0481,0,-6.9609,-6.9621,-6.9694,-6.9773,-6.9833,-6.9895,-6.9955,-6.9995,-7.0023,-7.0081,-7.0166,-7.0218,-7.0319,-7.04,-7.0476,-7.051,-7.05,-7.0501,-7.0521,-7.052,-7.0509,-7.0516,-7.0296,-7.0495,-7.0494,-7.0493,-7.0492,-7.0492,-6.9722,-6.9786,-6.9849,-6.9931,-6.9979,-7.0036,-7.0099,-7.0133,-7.0205,-7.0291,-7.0298,-7.039,-7.0449,-7.0551,-7.0589,-7.066,-7.0638,-7.0667,-7.0674,-7.0681,-7.0687,-7.0498,-7.0674,-7.0673,-7.0673,-7.0673,-7.0672,0,-6.9885,-6.9926,-7.0002,-7.0087,-7.0152,-7.014,-7.0206,-7.026,-7.0342,-7.0399,-7.0465,-7.0563,-7.0642,-7.0685,-7.0764,-7.0812,-7.081,-7.0832,-7.0829,-7.0837,-7.0702,-7.0677,-7.0833,-7.0833,-7.0833,-7.0833,-7.0833,-7.0833,-6.9978,-7.0085,-7.0105,-7.0237,-7.0276,-7.0368,-7.0407,-7.0459,-7.0505,-7.0616,-7.0683,-7.0711,-7.0762,-7.0845,-7.0916,-7.0927,-7.0956,-7.0981,-7.0989,-7.0862,-7.0846,-7.083,-7.0807,-7.0987,-7.0987,-7.1117,-7.1118,-7.1119]}]]